Orbital Elements at Epoch 2459200.5 (2020-Dec-17.0) TDB
Reference: JPL 25 (heliocentric ecliptic J2000)
Element | Value | Uncertainty (1-sigma) | Units |
e | .05455881972345156 | 3.7673e-08 | |
a | 2.159146554744469 | 6.787e-09 | au |
q | 2.041346067107654 | 7.9623e-08 | au |
i | .7912761108862892 | 4.0048e-06 | deg |
node | 201.101010786299 | 0.00024342 | deg |
peri | 295.950723059709 | 0.00024607 | deg |
M | 215.5798474109205 | 3.8602e-05 | deg |
tp | 2459665.386471417180 (2022-Mar-26.88647142) | 0.00012546 | TDB |
period | 1158.835015126829 3.17 | 5.464e-06 1.496e-08 | d yr |
n | .3106568193925343 | 1.4648e-09 | deg/d |
Q | 2.276947042381284 | 7.1573e-09 | au |
|
| | Orbit Determination Parameters
Additional Information
|